DW4236 Weather Reports


time (UTC)temp
C
wind
direction
speed
KPH
gust
KPH
rain 1hr
cm
rain 24hr
cm
rain mn
cm
humidity
%
barometer
mb
20260906091105 17 89 3.2 8.0 0.00 0.00 0.00 90 1014.6
20260906090104 17 99 3.2 4.8 0.00 0.00 0.00 90 1014.5
20260906085604 17 99 1.6 4.8 0.00 0.00 0.00 89 1014.5
20260906085104 17 106 0.0 3.2 0.00 0.00 0.00 90 1014.6
20260906084604 17 106 0.0 4.8 0.00 0.00 0.00 90 1014.7
20260906084105 17 105 1.6 4.8 0.00 0.00 0.00 90 1014.7
20260906083604 17 105 0.0 0.0 0.00 0.00 0.00 89 1014.7
20260906083104 17 103 0.0 0.0 0.00 0.00 0.00 89 1014.6
20260906082605 17 103 0.0 0.0 0.00 0.00 0.00 89 1014.5
20260906082105 17 103 0.0 0.0 0.00 0.00 0.00 89 1014.4
20260906081604 17 103 0.0 0.0 0.00 0.00 0.00 89 1014.4
20260906081104 17 103 0.0 0.0 0.00 0.00 0.00 89 1014.5
20260906080604 17 103 0.0 0.0 0.00 0.00 0.00 89 1014.3
20260906080104 17 103 0.0 0.0 0.00 0.00 0.00 89 1014.3
20260906075604 17 103 0.0 0.0 0.00 0.00 0.00 89 1014.2
20260906075104 17 103 0.0 4.8 0.00 0.00 0.00 89 1014.2
20260906074104 17 86 0.0 3.2 0.00 0.00 0.00 89 1014.1
20260906073604 17 85 1.6 4.8 0.00 0.00 0.00 89 1014.2
20260906072605 17 115 0.0 3.2 0.00 0.00 0.00 90 1014.3
20260906072104 17 114 1.6 4.8 0.00 0.00 0.00 90 1014.2
20260906071604 17 105 1.6 4.8 0.00 0.00 0.00 90 1014.2
20260906070104 18 59 0.0 0.0 0.00 0.00 0.00 90 1014.3
20260906065103 18 59 0.0 0.0 0.00 0.00 0.00 90 1014.2
20260906064604 18 59 0.0 0.0 0.00 0.00 0.00 90 1014.3
20260906064105 18 59 0.0 0.0 0.00 0.00 0.00 90 1014.4
20260906063604 18 59 0.0 0.0 0.00 0.00 0.00 90 1014.3
20260906063103 18 59 0.0 0.0 0.00 0.00 0.00 89 1014.4
20260906062605 18 59 0.0 0.0 0.00 0.00 0.00 89 1014.4
20260906062105 18 59 0.0 0.0 0.00 0.00 0.00 89 1014.3
20260906061604 18 59 0.0 0.0 0.00 0.00 0.00 89 1014.3
20260906060604 18 59 0.0 0.0 0.00 0.00 0.00 89 1014.4
20260906060104 18 59 0.0 0.0 0.00 0.00 0.00 89 1014.3
20260906055604 18 59 0.0 3.2 0.00 0.00 0.00 90 1014.4
20260906055104 18 59 1.6 4.8 0.00 0.00 0.00 90 1014.4
20260906054605 18 32 1.6 4.8 0.00 0.00 0.00 91 1014.4
20260906054105 18 53 0.0 0.0 0.00 0.00 0.00 90 1014.5
20260906053603 18 53 0.0 0.0 0.00 0.00 0.00 91 1014.6
20260906053104 18 53 0.0 0.0 0.00 0.00 0.00 91 1014.6
20260906052605 17 53 0.0 0.0 0.00 0.00 0.00 91 1014.6
20260906052105 17 53 0.0 4.8 0.00 0.00 0.00 91 1014.5
20260906051104 17 54 0.0 1.6 0.00 0.00 0.00 91 1014.5
20260906050104 17 53 0.0 0.0 0.00 0.00 0.00 91 1014.3
20260906045605 17 53 0.0 0.0 0.00 0.00 0.00 91 1014.4
20260906045104 17 53 0.0 0.0 0.00 0.00 0.00 91 1014.5
20260906044603 17 53 0.0 0.0 0.00 0.00 0.00 91 1014.5
20260906043605 17 53 0.0 0.0 0.00 0.00 0.00 91 1014.5
20260906042604 17 53 0.0 0.0 0.00 0.00 0.00 91 1014.5
20260906042104 17 53 0.0 0.0 0.00 0.00 0.00 91 1014.5
20260906041604 17 53 0.0 0.0 0.00 0.00 0.00 90 1014.5
20260906041104 17 53 0.0 1.6 0.00 0.00 0.00 90 1014.5
20260906040604 17 54 0.0 3.2 0.00 0.00 0.00 90 1014.4
20260906040105 17 45 0.0 0.0 0.00 0.00 0.00 90 1014.3
20260906035604 17 45 0.0 0.0 0.00 0.00 0.00 90 1014.3
20260906035103 17 45 0.0 0.0 0.00 0.00 0.00 90 1014.3
20260906034604 17 45 0.0 0.0 0.00 0.00 0.00 90 1014.3
20260906034104 17 45 0.0 0.0 0.00 0.00 0.00 89 1014.3
20260906033604 17 45 0.0 1.6 0.00 0.00 0.00 89 1014.3
20260906032603 17 45 0.0 3.2 0.00 0.00 0.00 89 1014.3
20260906032104 17 45 0.0 0.0 0.00 0.00 0.00 89 1014.2
20260906031604 17 45 0.0 0.0 0.00 0.00 0.00 88 1014.0
20260906031104 17 45 0.0 0.0 0.00 0.00 0.00 88 1014.0
20260906030603 17 45 0.0 0.0 0.00 0.00 0.00 88 1013.9
20260906025604 18 45 0.0 0.0 0.00 0.00 0.00 87 1013.8
20260906025104 18 45 0.0 0.0 0.00 0.00 0.00 87 1013.8
20260906024605 18 45 0.0 0.0 0.00 0.00 0.00 87 1013.9
20260906023603 18 45 0.0 0.0 0.00 0.00 0.00 86 1013.8
20260906023104 18 45 0.0 0.0 0.00 0.00 0.00 86 1013.9
20260906022104 18 45 0.0 0.0 0.00 0.00 0.00 85 1013.9
20260906021603 18 45 0.0 0.0 0.00 0.00 0.00 85 1014.0
20260906021104 18 45 0.0 0.0 0.00 0.00 0.00 84 1013.9
20260906020605 19 45 0.0 0.0 0.00 0.00 0.00 84 1013.8
20260906020104 19 45 0.0 4.8 0.00 0.00 0.00 84 1013.8
20260906015604 19 45 0.0 0.0 0.00 0.00 0.00 83 1013.8
20260906015104 19 45 0.0 0.0 0.00 0.00 0.00 82 1013.8
20260906014604 20 45 0.0 0.0 0.00 0.00 0.00 81 1013.7
20260906013604 20 45 0.0 0.0 0.00 0.00 0.00 80 1013.7
20260906013103 20 45 0.0 0.0 0.00 0.00 0.00 79 1013.7
20260906012604 20 45 0.0 0.0 0.00 0.00 0.00 78 1013.7
20260906012104 20 40 0.0 1.6 0.00 0.00 0.00 78 1013.5
20260906011604 21 44 0.0 3.2 0.00 0.00 0.00 77 1013.5
20260906011104 21 40 1.6 3.2 0.00 0.00 0.00 77 1013.6
20260906010603 21 40 3.2 4.8 0.00 0.00 0.00 77 1013.6
20260906010104 21 40 1.6 3.2 0.00 0.00 0.00 77 1013.4
20260906005604 21 40 0.0 0.0 0.00 0.00 0.00 76 1013.4
20260906004604 21 43 3.2 4.8 0.00 0.00 0.00 76 1013.2
20260906004104 21 58 3.2 4.8 0.00 0.00 0.00 76 1013.2
20260906003104 21 23 1.6 9.7 0.00 0.00 0.00 75 1013.1
20260906002603 21 40 0.0 1.6 0.00 0.00 0.00 75 1013.1
20260906002105 21 31 1.6 4.8 0.00 0.00 0.00 75 1013.1
20260906001604 21 34 3.2 8.0 0.00 0.00 0.00 75 1013.1
20260906001103 21 51 3.2 8.0 0.00 0.00 0.00 75 1013.1
20260906000604 21 26 4.8 9.7 0.00 0.00 0.00 75 1013.1
20260906000105 21 38 3.2 8.0 0.00 0.00 0.00 75 1013.0
20260905235603 21 30 3.2 8.0 0.00 0.00 0.00 75 1012.9
20260905235104 21 19 3.2 8.0 0.00 0.00 0.00 75 1012.8
20260905234604 21 48 0.0 4.8 0.00 0.00 0.00 74 1012.7
20260905234104 21 51 3.2 8.0 0.00 0.00 0.00 74 1012.6
20260905233603 21 33 3.2 8.0 0.00 0.00 0.00 74 1012.6
20260905232604 21 22 4.8 9.7 0.00 0.00 0.00 74 1012.6
20260905232103 21 31 4.8 14.5 0.00 0.00 0.00 74 1012.6
20260905231604 22 22 3.2 8.0 0.00 0.00 0.00 75 1012.6
20260905230604 22 23 4.8 9.7 0.00 0.00 0.00 74 1012.5
20260905230104 22 31 4.8 12.9 0.00 0.00 0.00 73 1012.5
20260905225603 22 100 1.6 4.8 0.00 0.00 0.00 72 1012.4
20260905225104 22 359 3.2 8.0 0.00 0.00 0.00 72 1012.4
20260905224604 22 20 4.8 12.9 0.00 0.00 0.00 71 1012.4
20260905224104 22 30 1.6 8.0 0.00 0.00 0.00 71 1012.3
20260905223603 22 20 3.2 4.8 0.00 0.00 0.00 70 1012.1
20260905223105 22 16 4.8 8.0 0.00 0.00 0.00 70 1012.1
20260905222604 22 28 4.8 16.1 0.00 0.00 0.00 70 1012.2
20260905222104 23 9 1.6 4.8 0.00 0.00 0.00 70 1012.1
20260905221604 23 17 3.2 4.8 0.00 0.00 0.00 70 1012.0
20260905220605 23 25 3.2 8.0 0.00 0.00 0.00 69 1011.9
20260905220104 23 8 4.8 11.3 0.00 0.00 0.00 68 1011.9
20260905215603 23 31 4.8 12.9 0.00 0.00 0.00 68 1011.9
20260905215104 23 355 3.2 11.3 0.00 0.00 0.00 68 1011.9
20260905214604 23 11 3.2 9.7 0.00 0.00 0.00 68 1011.7
20260905214104 23 38 3.2 4.8 0.00 0.00 0.00 67 1011.7
20260905213603 23 94 1.6 8.0 0.00 0.00 0.00 66 1011.7
20260905213104 23 28 3.2 9.7 0.00 0.00 0.00 66 1011.7
20260905212605 24 16 4.8 14.5 0.00 0.00 0.00 65 1011.6
20260905212104 24 50 3.2 8.0 0.00 0.00 0.00 64 1011.6
20260905211604 25 45 6.4 12.9 0.00 0.00 0.00 62 1011.6
20260905211103 25 337 3.2 9.7 0.00 0.00 0.00 63 1011.6
20260905210605 25 40 1.6 8.0 0.00 0.00 0.00 63 1011.5
20260905210104 25 49 1.6 4.8 0.00 0.00 0.00 63 1011.4
20260905205104 24 24 1.6 4.8 0.00 0.00 0.00 64 1011.4
20260905204605 24 21 3.2 8.0 0.00 0.00 0.00 63 1011.4
20260905204104 25 52 4.8 12.9 0.00 0.00 0.00 61 1011.3
20260905203604 25 27 3.2 16.1 0.00 0.00 0.00 59 1011.3
20260905202603 26 30 6.4 12.9 0.00 0.00 0.00 58 1011.3
20260905202103 26 45 3.2 8.0 0.00 0.00 0.00 60 1011.3
20260905201604 26 20 6.4 14.5 0.00 0.00 0.00 59 1011.3
20260905201103 26 1 8.0 16.1 0.00 0.00 0.00 58 1011.3
20260905200604 26 18 3.2 9.7 0.00 0.00 0.00 61 1011.3
20260905200104 25 100 4.8 11.3 0.00 0.00 0.00 60 1011.3
20260905195604 26 37 6.4 14.5 0.00 0.00 0.00 60 1011.3
20260905195104 25 80 6.4 16.1 0.00 0.00 0.00 61 1011.3
20260905194604 25 44 8.0 14.5 0.00 0.00 0.00 61 1011.3
20260905193604 25 351 6.4 16.1 0.00 0.00 0.00 60 1011.2
20260905193103 25 47 4.8 14.5 0.00 0.00 0.00 59 1011.2
20260905192104 25 95 4.8 14.5 0.00 0.00 0.00 60 1011.2
20260905191603 25 6 3.2 12.9 0.00 0.00 0.00 63 1011.3
20260905191104 25 26 4.8 14.5 0.00 0.00 0.00 63 1011.4
20260905190604 25 6 4.8 9.7 0.00 0.00 0.00 62 1011.4
20260905190103 25 82 3.2 11.3 0.00 0.00 0.00 61 1011.3
20260905185604 26 22 4.8 12.9 0.00 0.00 0.00 60 1011.4
20260905184604 26 27 1.6 4.8 0.00 0.00 0.00 59 1011.4
20260905184103 26 65 4.8 16.1 0.00 0.00 0.00 58 1011.4
20260905183604 26 90 4.8 12.9 0.00 0.00 0.00 58 1011.5
20260905183103 26 42 4.8 12.9 0.00 0.00 0.00 59 1011.5
20260905182604 26 353 4.8 12.9 0.00 0.00 0.00 61 1011.5
20260905182103 25 350 1.6 14.5 0.00 0.00 0.00 64 1011.5
20260905181104 25 27 3.2 16.1 0.00 0.00 0.00 62 1011.7
20260905180604 25 19 9.7 19.3 0.00 0.00 0.00 61 1011.7
20260905175104 25 50 6.4 14.5 0.00 0.00 0.00 63 1011.9
20260905174604 25 65 8.0 19.3 0.00 0.00 0.00 66 1011.9
20260905173603 25 95 9.7 16.1 0.00 0.00 0.00 66 1012.0
20260905173103 24 86 1.6 19.3 0.00 0.00 0.00 67 1012.0
20260905172603 24 84 6.4 19.3 0.00 0.00 0.00 66 1012.0
20260905172104 24 63 3.2 14.5 0.00 0.00 0.00 68 1012.1
20260905171604 23 0 3.2 11.3 0.00 0.00 0.00 69 1012.1
20260905171103 23 57 3.2 14.5 0.00 0.00 0.00 68 1012.1
20260905170603 23 89 4.8 16.1 0.00 0.00 0.00 67 1012.2
20260905170104 24 58 8.0 20.9 0.00 0.00 0.00 66 1012.2
20260905165603 24 97 8.0 14.5 0.00 0.00 0.00 67 1012.1
20260905165104 24 18 6.4 12.9 0.00 0.00 0.00 67 1012.2
20260905164604 23 44 4.8 12.9 0.00 0.00 0.00 69 1012.2
20260905164105 23 84 3.2 8.0 0.00 0.00 0.00 70 1012.2
20260905163606 23 103 1.6 8.0 0.00 0.00 0.00 70 1012.2
20260905163105 23 20 8.0 14.5 0.00 0.00 0.00 69 1012.2
20260905162605 23 4 0.0 3.2 0.00 0.00 0.00 69 1012.1
20260905162106 24 358 3.2 12.9 0.00 0.00 0.00 68 1012.1
20260905161605 24 109 0.0 4.8 0.00 0.00 0.00 70 1012.1
20260905161105 23 118 3.2 8.0 0.00 0.00 0.00 71 1012.2
20260905160605 23 27 4.8 8.0 0.00 0.00 0.00 70 1012.2
20260905160105 23 122 4.8 11.3 0.00 0.00 0.00 72 1012.1
20260905155605 23 9 3.2 8.0 0.00 0.00 0.00 71 1012.2
20260905155104 23 55 3.2 9.7 0.00 0.00 0.00 70 1012.2
20260905154605 23 97 3.2 8.0 0.00 0.00 0.00 72 1012.2
20260905154105 23 107 3.2 11.3 0.00 0.00 0.00 72 1012.2
20260905153605 23 99 3.2 19.3 0.00 0.00 0.00 72 1012.2
20260905153105 24 2 4.8 12.9 0.00 0.00 0.00 71 1012.2
20260905152606 23 77 4.8 19.3 0.00 0.00 0.00 73 1012.2
20260905151605 23 124 6.4 14.5 0.00 0.00 0.00 75 1012.3
20260905150606 23 83 4.8 9.7 0.00 0.00 0.00 75 1012.4
20260905150105 23 139 3.2 9.7 0.00 0.00 0.00 75 1012.4
20260905145106 23 112 4.8 4.8 0.00 0.00 0.00 73 1012.5
20260905144605 23 112 1.6 4.8 0.00 0.00 0.00 73 1012.3
20260905144105 23 112 4.8 11.3 0.00 0.00 0.00 75 1012.2
20260905143606 23 126 3.2 4.8 0.00 0.00 0.00 74 1012.3
20260905143104 23 125 1.6 4.8 0.00 0.00 0.00 76 1012.4
20260905142605 23 126 3.2 4.8 0.00 0.00 0.00 76 1012.4
20260905142105 22 125 1.6 4.8 0.00 0.00 0.00 76 1012.4
20260905141605 22 125 1.6 4.8 0.00 0.00 0.00 77 1012.3
20260905141105 22 125 3.2 8.0 0.00 0.00 0.00 76 1012.4
20260905140606 22 125 1.6 8.0 0.00 0.00 0.00 78 1012.3
20260905135605 22 126 4.8 8.0 0.00 0.00 0.00 77 1012.4
20260905135105 22 128 1.6 8.0 0.00 0.00 0.00 78 1012.4
20260905134605 22 157 0.0 3.2 0.00 0.00 0.00 81 1012.5
20260905133604 21 183 1.6 8.0 0.00 0.00 0.00 83 1012.5
20260905132605 21 167 4.8 4.8 0.00 0.00 0.00 86 1012.6
20260905132105 20 224 1.6 4.8 0.00 0.00 0.00 86 1012.5
20260905131605 19 242 0.0 0.0 0.00 0.00 0.00 87 1012.6
20260905130605 19 242 0.0 0.0 0.00 0.00 0.00 86 1012.7
20260905130105 19 242 0.0 4.8 0.00 0.00 0.00 86 1012.7
20260905125605 19 242 0.0 3.2 0.00 0.00 0.00 87 1012.9
20260905125105 19 242 0.0 3.2 0.00 0.00 0.00 87 1012.9
20260905124605 18 242 1.6 3.2 0.00 0.00 0.00 87 1012.9
20260905124105 18 242 0.0 8.0 0.00 0.00 0.00 87 1012.8
20260905123105 18 282 3.2 8.0 0.00 0.00 0.00 88 1012.8
20260905122605 18 268 4.8 12.9 0.00 0.00 0.00 89 1012.9
20260905122106 18 281 6.4 12.9 0.00 0.00 0.00 90 1012.9
20260905121605 18 266 8.0 12.9 0.00 0.00 0.00 91 1012.9
20260905121105 18 279 3.2 4.8 0.00 0.00 0.00 92 1012.9
20260905120605 17 273 3.2 9.7 0.00 0.00 0.00 93 1012.8
20260905120105 17 307 1.6 11.3 0.00 0.00 0.00 94 1012.7
20260905115605 17 276 1.6 9.7 0.00 0.00 0.00 95 1012.6
20260905115105 17 264 3.2 11.3 0.00 0.00 0.00 95 1012.6
20260905114605 17 286 4.8 11.3 0.00 0.00 0.00 95 1012.6
20260905114105 16 286 3.2 4.8 0.00 0.00 0.00 95 1012.5
20260905113605 16 280 3.2 8.0 0.00 0.00 0.00 95 1012.4
20260905112606 16 336 0.0 0.0 0.00 0.00 0.00 96 1012.4
20260905112104 16 336 0.0 0.0 0.00 0.00 0.00 95 1012.4
20260905111605 15 336 0.0 0.0 0.00 0.00 0.00 95 1012.2
20260905111106 15 336 0.0 0.0 0.00 0.00 0.00 95 1012.2
20260905110605 15 336 0.0 0.0 0.00 0.00 0.00 95 1012.2
20260905110105 15 336 0.0 0.0 0.00 0.00 0.00 95 1012.1
20260905105105 15 336 0.0 0.0 0.00 0.03 0.00 95 1011.9
20260905104604 15 336 0.0 0.0 0.00 0.03 0.00 95 1011.9
20260905104105 15 336 0.0 0.0 0.00 0.03 0.00 95 1011.8
20260905103605 15 336 0.0 0.0 0.00 0.03 0.00 95 1011.7
20260905103105 15 336 0.0 0.0 0.00 0.03 0.00 95 1011.7
20260905102606 15 336 0.0 0.0 0.00 0.03 0.00 95 1011.5
20260905102105 15 336 0.0 0.0 0.00 0.03 0.00 95 1011.5
20260905101606 15 336 0.0 0.0 0.00 0.03 0.00 95 1011.5
20260905101104 15 336 0.0 0.0 0.00 0.03 0.00 94 1011.4
20260905100605 15 336 0.0 0.0 0.00 0.03 0.00 94 1011.4
20260905100105 15 336 0.0 0.0 0.00 0.03 0.00 94 1011.5
20260905095106 15 336 0.0 0.0 0.00 0.03 0.00 94 1011.4
20260905094604 15 336 0.0 0.0 0.00 0.03 0.00 94 1011.5
20260905094104 15 336 0.0 0.0 0.00 0.03 0.00 94 1011.4
20260905093605 15 336 0.0 0.0 0.00 0.03 0.00 94 1011.5
20260905093104 15 336 0.0 0.0 0.00 0.03 0.00 94 1011.4
20260905092604 15 336 0.0 0.0 0.00 0.03 0.00 94 1011.4
20260905092104 16 336 0.0 0.0 0.00 0.03 0.00 94 1011.4